Location: York
(31.8935°S, 116.7682°E)
Time: 19:02:50
(UTC+08:00)

deb Explorer IX - Pass Details

Date: 28 September 2022
Orbit: 533 x 1057 km, 38.8° (Epoch: 30 November)

Event Time Altitude Azimuth Distance (km) Brightness Sun altitude
Rises 23:24:37 0° 249° (WSW) 2,976 - -54.7°
Reaches altitude 10° 23:27:15 10° 240° (WSW) 1,987 - -54.9°
Maximum altitude 23:31:26 35° 173° (S) 930 - -55.1°
Drops below altitude 10° 23:35:15 10° 105° (ESE) 1,821 - -55.3°
Sets 23:37:34 0° 96° (E) 2,690 - -55.4°
